Year,Month,Day,Hour,Minute,Value (Times are PST for temperature in C)
2007,09,18,00,00,11.10
2007,09,18,00,01,11.10
2007,09,18,00,02,11.10
2007,09,18,00,03,11.10
2007,09,18,00,04,11.10
2007,09,18,00,05,11.10
2007,09,18,00,06,11.10
2007,09,18,00,07,11.10
2007,09,18,00,08,11.10
2007,09,18,00,09,11.10
2007,09,18,00,10,11.10
2007,09,18,00,11,11.10
2007,09,18,00,12,11.10
2007,09,18,00,13,11.10
2007,09,18,00,14,11.10
2007,09,18,00,15,11.10
2007,09,18,00,16,11.10
2007,09,18,00,17,11.20
2007,09,18,00,18,11.20
2007,09,18,00,19,11.20
2007,09,18,00,20,11.20
2007,09,18,00,21,11.20
2007,09,18,00,22,11.20
2007,09,18,00,23,11.20
2007,09,18,00,24,11.20
2007,09,18,00,25,11.20
2007,09,18,00,26,11.20
2007,09,18,00,27,11.20
2007,09,18,00,28,11.20
2007,09,18,00,29,11.20
2007,09,18,00,30,11.20
2007,09,18,00,31,11.20
2007,09,18,00,32,11.20
2007,09,18,00,33,11.20
2007,09,18,00,34,11.20
2007,09,18,00,35,11.20
2007,09,18,00,36,11.20
2007,09,18,00,37,11.20
2007,09,18,00,38,11.20
2007,09,18,00,39,11.20
2007,09,18,00,40,11.20
2007,09,18,00,41,11.20
2007,09,18,00,42,11.20
2007,09,18,00,43,11.10
2007,09,18,00,44,11.10
2007,09,18,00,45,11.10
2007,09,18,00,46,11.10
2007,09,18,00,47,11.10
2007,09,18,00,48,11.10
2007,09,18,00,49,11.10
2007,09,18,00,50,11.10
2007,09,18,00,51,11.10
2007,09,18,00,52,11.10
2007,09,18,00,53,11.10
2007,09,18,00,54,11.10
2007,09,18,00,55,11.10
2007,09,18,00,56,11.10
2007,09,18,00,57,11.10
2007,09,18,00,58,11.10
2007,09,18,00,59,11.10
2007,09,18,01,00,11.10
2007,09,18,01,01,11.10
2007,09,18,01,02,11.10
2007,09,18,01,03,11.10
2007,09,18,01,04,11.10
2007,09,18,01,05,11.10
2007,09,18,01,06,11.10
2007,09,18,01,07,11.10
2007,09,18,01,08,11.10
2007,09,18,01,09,11.10
2007,09,18,01,10,11.10
2007,09,18,01,11,11.10
2007,09,18,01,12,11.00
2007,09,18,01,13,10.90
2007,09,18,01,14,10.90
2007,09,18,01,15,10.90
2007,09,18,01,16,10.90
2007,09,18,01,17,10.90
2007,09,18,01,18,10.90
2007,09,18,01,19,10.80
2007,09,18,01,20,10.80
2007,09,18,01,21,10.80
2007,09,18,01,22,10.70
2007,09,18,01,23,10.70
2007,09,18,01,24,10.70
2007,09,18,01,25,10.70
2007,09,18,01,26,10.60
2007,09,18,01,27,10.60
2007,09,18,01,28,10.60
2007,09,18,01,29,10.60
2007,09,18,01,30,10.60
2007,09,18,01,31,10.50
2007,09,18,01,32,10.40
2007,09,18,01,33,10.40
2007,09,18,01,34,10.40
2007,09,18,01,35,10.40
2007,09,18,01,36,10.40
2007,09,18,01,37,10.40
2007,09,18,01,38,10.40
2007,09,18,01,39,10.30
2007,09,18,01,40,10.30
2007,09,18,01,41,10.30
2007,09,18,01,42,10.30
2007,09,18,01,43,10.20
2007,09,18,01,44,10.20
2007,09,18,01,45,10.20
2007,09,18,01,46,10.20
2007,09,18,01,47,10.20
2007,09,18,01,48,10.10
2007,09,18,01,49,10.10
2007,09,18,01,50,10.10
2007,09,18,01,51,10.10
2007,09,18,01,52,10.10
2007,09,18,01,53,10.10
2007,09,18,01,54,10.10
2007,09,18,01,55,10.10
2007,09,18,01,56,10.10
2007,09,18,01,57,10.00
2007,09,18,01,58,9.90
2007,09,18,01,59,9.90
2007,09,18,02,00,9.90
2007,09,18,02,01,9.90
2007,09,18,02,02,9.90
2007,09,18,02,03,9.90
2007,09,18,02,04,9.90
2007,09,18,02,05,9.80
2007,09,18,02,06,9.80
2007,09,18,02,07,9.80
2007,09,18,02,08,9.80
2007,09,18,02,09,9.70
2007,09,18,02,10,9.70
2007,09,18,02,11,9.70
2007,09,18,02,12,9.70
2007,09,18,02,13,9.70
2007,09,18,02,14,9.70
2007,09,18,02,15,9.60
2007,09,18,02,16,9.60
2007,09,18,02,17,9.60
2007,09,18,02,18,9.50
2007,09,18,02,19,9.50
2007,09,18,02,20,9.50
2007,09,18,02,21,9.40
2007,09,18,02,22,9.40
2007,09,18,02,23,9.40
2007,09,18,02,24,9.40
2007,09,18,02,25,9.30
2007,09,18,02,26,9.20
2007,09,18,02,27,9.20
2007,09,18,02,28,9.20
2007,09,18,02,29,9.20
2007,09,18,02,30,9.20
2007,09,18,02,31,9.10
2007,09,18,02,32,9.10
2007,09,18,02,33,9.10
2007,09,18,02,34,9.00
2007,09,18,02,35,9.00
2007,09,18,02,36,9.00
2007,09,18,02,37,8.90
2007,09,18,02,38,8.90
2007,09,18,02,39,8.90
2007,09,18,02,40,8.80
2007,09,18,02,41,8.80
2007,09,18,02,42,8.80
2007,09,18,02,43,8.70
2007,09,18,02,44,8.70
2007,09,18,02,45,8.70
2007,09,18,02,46,8.70
2007,09,18,02,47,8.70
2007,09,18,02,48,8.70
2007,09,18,02,49,8.70
2007,09,18,02,50,8.60
2007,09,18,02,51,8.60
2007,09,18,02,52,8.60
2007,09,18,02,53,8.60
2007,09,18,02,54,8.60
2007,09,18,02,55,8.60
2007,09,18,02,56,8.50
2007,09,18,02,57,8.50
2007,09,18,02,58,8.50
2007,09,18,02,59,8.50
2007,09,18,03,00,8.40
2007,09,18,03,01,8.40
2007,09,18,03,02,8.40
2007,09,18,03,03,8.40
2007,09,18,03,04,8.40
2007,09,18,03,05,8.40
2007,09,18,03,06,8.30
2007,09,18,03,07,8.30
2007,09,18,03,08,8.30
2007,09,18,03,09,8.30
2007,09,18,03,10,8.30
2007,09,18,03,11,8.30
2007,09,18,03,12,8.30
2007,09,18,03,13,8.30
2007,09,18,03,14,8.20
2007,09,18,03,15,8.20
2007,09,18,03,16,8.20
2007,09,18,03,17,8.20
2007,09,18,03,18,8.20
2007,09,18,03,19,8.20
2007,09,18,03,20,8.20
2007,09,18,03,21,8.20
2007,09,18,03,22,8.20
2007,09,18,03,23,8.20
2007,09,18,03,24,8.20
2007,09,18,03,25,8.20
2007,09,18,03,26,8.20
2007,09,18,03,27,8.20
2007,09,18,03,28,8.20
2007,09,18,03,29,8.10
2007,09,18,03,30,8.10
2007,09,18,03,31,8.10
2007,09,18,03,32,8.10
2007,09,18,03,33,8.10
2007,09,18,03,34,8.00
2007,09,18,03,35,8.00
2007,09,18,03,36,8.00
2007,09,18,03,37,8.00
2007,09,18,03,38,8.00
2007,09,18,03,39,8.00
2007,09,18,03,40,8.00
2007,09,18,03,41,7.90
2007,09,18,03,42,7.90
2007,09,18,03,43,7.90
2007,09,18,03,44,7.90
2007,09,18,03,45,7.80
2007,09,18,03,46,7.80
2007,09,18,03,47,7.80
2007,09,18,03,48,7.80
2007,09,18,03,49,7.80
2007,09,18,03,50,7.80
2007,09,18,03,51,7.80
2007,09,18,03,52,7.80
2007,09,18,03,53,7.80
2007,09,18,03,54,7.80
2007,09,18,03,55,7.80
2007,09,18,03,56,7.80
2007,09,18,03,57,7.80
2007,09,18,03,58,7.80
2007,09,18,03,59,7.80
2007,09,18,04,00,7.80
2007,09,18,04,01,7.70
2007,09,18,04,02,7.70
2007,09,18,04,03,7.70
2007,09,18,04,04,7.70
2007,09,18,04,05,7.70
2007,09,18,04,06,7.70
2007,09,18,04,07,7.70
2007,09,18,04,08,7.70
2007,09,18,04,09,7.60
2007,09,18,04,10,7.60
2007,09,18,04,11,7.60
2007,09,18,04,12,7.60
2007,09,18,04,13,7.60
2007,09,18,04,14,7.60
2007,09,18,04,15,7.60
2007,09,18,04,16,7.50
2007,09,18,04,17,7.50
2007,09,18,04,18,7.50
2007,09,18,04,19,7.50
2007,09,18,04,20,7.50
2007,09,18,04,21,7.40
2007,09,18,04,22,7.40
2007,09,18,04,23,7.40
2007,09,18,04,24,7.40
2007,09,18,04,25,7.40
2007,09,18,04,26,7.40
2007,09,18,04,27,7.40
2007,09,18,04,28,7.40
2007,09,18,04,29,7.40
2007,09,18,04,30,7.40
2007,09,18,04,31,7.30
2007,09,18,04,32,7.30
2007,09,18,04,33,7.30
2007,09,18,04,34,7.30
2007,09,18,04,35,7.30
2007,09,18,04,36,7.30
2007,09,18,04,37,7.30
2007,09,18,04,38,7.30
2007,09,18,04,39,7.30
2007,09,18,04,40,7.30
2007,09,18,04,41,7.30
2007,09,18,04,42,7.30
2007,09,18,04,43,7.30
2007,09,18,04,44,7.30
2007,09,18,04,45,7.30
2007,09,18,04,46,7.30
2007,09,18,04,47,7.30
2007,09,18,04,48,7.30
2007,09,18,04,49,7.30
2007,09,18,04,50,7.30
2007,09,18,04,51,7.30
2007,09,18,04,52,7.30
2007,09,18,04,53,7.30
2007,09,18,04,54,7.30
2007,09,18,04,55,7.30
2007,09,18,04,56,7.30
2007,09,18,04,57,7.30
2007,09,18,04,58,7.30
2007,09,18,04,59,7.30
2007,09,18,05,00,7.30
2007,09,18,05,01,7.30
2007,09,18,05,02,7.30
2007,09,18,05,03,7.30
2007,09,18,05,04,7.30
2007,09,18,05,05,7.30
2007,09,18,05,06,7.20
2007,09,18,05,07,7.20
2007,09,18,05,08,7.20
2007,09,18,05,09,7.20
2007,09,18,05,10,7.20
2007,09,18,05,11,7.20
2007,09,18,05,12,7.20
2007,09,18,05,13,7.20
2007,09,18,05,14,7.20
2007,09,18,05,15,7.30
2007,09,18,05,16,7.30
2007,09,18,05,17,7.30
2007,09,18,05,18,7.30
2007,09,18,05,19,7.30
2007,09,18,05,20,7.30
2007,09,18,05,21,7.30
2007,09,18,05,22,7.30
2007,09,18,05,23,7.30
2007,09,18,05,24,7.30
2007,09,18,05,25,7.30
2007,09,18,05,26,7.30
2007,09,18,05,27,7.30
2007,09,18,05,28,7.30
2007,09,18,05,29,7.30
2007,09,18,05,30,7.30
2007,09,18,05,31,7.30
2007,09,18,05,32,7.30
2007,09,18,05,33,7.30
2007,09,18,05,34,7.40
2007,09,18,05,35,7.40
2007,09,18,05,36,7.40
2007,09,18,05,37,7.40
2007,09,18,05,38,7.40
2007,09,18,05,39,7.40
2007,09,18,05,40,7.50
2007,09,18,05,41,7.50
2007,09,18,05,42,7.50
2007,09,18,05,43,7.50
2007,09,18,05,44,7.50
2007,09,18,05,45,7.50
2007,09,18,05,46,7.50
2007,09,18,05,47,7.50
2007,09,18,05,48,7.50
2007,09,18,05,49,7.60
2007,09,18,05,50,7.60
2007,09,18,05,51,7.60
2007,09,18,05,52,7.60
2007,09,18,05,53,7.60
2007,09,18,05,54,7.60
2007,09,18,05,55,7.60
2007,09,18,05,56,7.60
2007,09,18,05,57,7.60
2007,09,18,05,58,7.60
2007,09,18,05,59,7.60
2007,09,18,06,00,7.60
2007,09,18,06,01,7.60
2007,09,18,06,02,7.60
2007,09,18,06,03,7.60
2007,09,18,06,04,7.60
2007,09,18,06,05,7.60
2007,09,18,06,06,7.60
2007,09,18,06,07,7.60
2007,09,18,06,08,7.60
2007,09,18,06,09,7.60
2007,09,18,06,10,7.60
2007,09,18,06,11,7.60
2007,09,18,06,12,7.60
2007,09,18,06,13,7.50
2007,09,18,06,14,7.50
2007,09,18,06,15,7.50
2007,09,18,06,16,7.50
2007,09,18,06,17,7.50
2007,09,18,06,18,7.50
2007,09,18,06,19,7.50
2007,09,18,06,20,7.40
2007,09,18,06,21,7.40
2007,09,18,06,22,7.40
2007,09,18,06,23,7.40
2007,09,18,06,24,7.40
2007,09,18,06,25,7.40
2007,09,18,06,26,7.40
2007,09,18,06,27,7.40
2007,09,18,06,28,7.40
2007,09,18,06,29,7.40
2007,09,18,06,30,7.40
2007,09,18,06,31,7.40
2007,09,18,06,32,7.40
2007,09,18,06,33,7.40
2007,09,18,06,34,7.30
2007,09,18,06,35,7.30
2007,09,18,06,36,7.30
2007,09,18,06,37,7.30
2007,09,18,06,38,7.30
2007,09,18,06,39,7.30
2007,09,18,06,40,7.30
2007,09,18,06,41,7.30
2007,09,18,06,42,7.30
2007,09,18,06,43,7.30
2007,09,18,06,44,7.30
2007,09,18,06,45,7.30
2007,09,18,06,46,7.30
2007,09,18,06,47,7.30
2007,09,18,06,48,7.30
2007,09,18,06,49,7.30
2007,09,18,06,50,7.30
2007,09,18,06,51,7.30
2007,09,18,06,52,7.30
2007,09,18,06,53,7.30
2007,09,18,06,54,7.30
2007,09,18,06,55,7.30
2007,09,18,06,56,7.30
2007,09,18,06,57,7.30
2007,09,18,06,58,7.20
2007,09,18,06,59,7.20
2007,09,18,07,00,7.20
2007,09,18,07,01,7.20
2007,09,18,07,02,7.20
2007,09,18,07,03,7.10
2007,09,18,07,04,7.10
2007,09,18,07,05,7.10
2007,09,18,07,06,7.10
2007,09,18,07,07,7.10
2007,09,18,07,08,7.10
2007,09,18,07,09,7.10
2007,09,18,07,10,7.10
2007,09,18,07,11,7.10
2007,09,18,07,12,7.10
2007,09,18,07,13,7.00
2007,09,18,07,14,7.00
2007,09,18,07,15,7.00
2007,09,18,07,16,7.00
2007,09,18,07,17,7.00
2007,09,18,07,18,6.90
2007,09,18,07,19,6.90
2007,09,18,07,20,6.90
2007,09,18,07,21,6.90
2007,09,18,07,22,6.90
2007,09,18,07,23,6.90
2007,09,18,07,24,6.90
2007,09,18,07,25,6.90
2007,09,18,07,26,6.90
2007,09,18,07,27,6.90
2007,09,18,07,28,7.00
2007,09,18,07,29,7.00
2007,09,18,07,30,7.00
2007,09,18,07,31,7.00
2007,09,18,07,32,7.00
2007,09,18,07,33,7.00
2007,09,18,07,34,7.00
2007,09,18,07,35,7.00
2007,09,18,07,36,7.00
2007,09,18,07,37,7.10
2007,09,18,07,38,7.10
2007,09,18,07,39,7.10
2007,09,18,07,40,7.10
2007,09,18,07,41,7.10
2007,09,18,07,42,7.10
2007,09,18,07,43,7.10
2007,09,18,07,44,7.10
2007,09,18,07,45,7.10
2007,09,18,07,46,7.10
2007,09,18,07,47,7.10
2007,09,18,07,48,7.20
2007,09,18,07,49,7.20
2007,09,18,07,50,7.30
2007,09,18,07,51,7.30
2007,09,18,07,52,7.30
2007,09,18,07,53,7.30
2007,09,18,07,54,7.30
2007,09,18,07,55,7.30
2007,09,18,07,56,7.40
2007,09,18,07,57,7.40
2007,09,18,07,58,7.50
2007,09,18,07,59,7.50
2007,09,18,08,00,7.50
2007,09,18,08,01,7.60
2007,09,18,08,02,7.60
2007,09,18,08,03,7.70
2007,09,18,08,04,7.70
2007,09,18,08,05,7.80
2007,09,18,08,06,7.80
2007,09,18,08,07,7.80
2007,09,18,08,08,7.90
2007,09,18,08,09,8.00
2007,09,18,08,10,8.00
2007,09,18,08,11,8.00
2007,09,18,08,12,8.10
2007,09,18,08,13,8.20
2007,09,18,08,14,8.40
2007,09,18,08,15,8.50
2007,09,18,08,16,8.60
2007,09,18,08,17,8.70
2007,09,18,08,18,8.80
2007,09,18,08,19,8.90
2007,09,18,08,20,9.10
2007,09,18,08,21,9.20
2007,09,18,08,22,9.30
2007,09,18,08,23,9.40
2007,09,18,08,24,9.60
2007,09,18,08,25,9.70
2007,09,18,08,26,9.80
2007,09,18,08,27,9.90
2007,09,18,08,28,10.10
2007,09,18,08,29,10.20
2007,09,18,08,30,10.30
2007,09,18,08,31,10.40
2007,09,18,08,32,10.50
2007,09,18,08,33,10.60
2007,09,18,08,34,10.60
2007,09,18,08,35,10.60
2007,09,18,08,36,10.70
2007,09,18,08,37,10.70
2007,09,18,08,38,10.70
2007,09,18,08,39,10.80
2007,09,18,08,40,10.80
2007,09,18,08,41,10.90
2007,09,18,08,42,10.90
2007,09,18,08,43,11.00
2007,09,18,08,44,11.10
2007,09,18,08,45,11.10
2007,09,18,08,46,11.20
2007,09,18,08,47,11.30
2007,09,18,08,48,11.30
2007,09,18,08,49,11.40
2007,09,18,08,50,11.40
2007,09,18,08,51,11.50
2007,09,18,08,52,11.60
2007,09,18,08,53,11.60
2007,09,18,08,54,11.70
2007,09,18,08,55,11.70
2007,09,18,08,56,11.80
2007,09,18,08,57,11.80
2007,09,18,08,58,11.90
2007,09,18,08,59,11.90
2007,09,18,09,00,12.10
2007,09,18,09,01,12.20
2007,09,18,09,02,12.30
2007,09,18,09,03,12.40
2007,09,18,09,04,12.50
2007,09,18,09,05,12.60
2007,09,18,09,06,12.70
2007,09,18,09,07,12.70
2007,09,18,09,08,12.80
2007,09,18,09,09,12.80
2007,09,18,09,10,12.80
2007,09,18,09,11,12.80
2007,09,18,09,12,12.90
2007,09,18,09,13,12.90
2007,09,18,09,14,13.00
2007,09,18,09,15,13.10
2007,09,18,09,16,13.10
2007,09,18,09,17,13.20
2007,09,18,09,18,13.30
2007,09,18,09,19,13.50
2007,09,18,09,20,13.60
2007,09,18,09,21,13.70
2007,09,18,09,22,13.70
2007,09,18,09,23,13.70
2007,09,18,09,24,13.80
2007,09,18,09,25,13.80
2007,09,18,09,26,13.80
2007,09,18,09,27,13.90
2007,09,18,09,28,13.90
2007,09,18,09,29,13.90
2007,09,18,09,30,13.90
2007,09,18,09,31,13.90
2007,09,18,09,32,14.00
2007,09,18,09,33,14.00
2007,09,18,09,34,14.10
2007,09,18,09,35,14.20
2007,09,18,09,36,14.20
2007,09,18,09,37,14.20
2007,09,18,09,38,14.30
2007,09,18,09,39,14.40
2007,09,18,09,40,14.40
2007,09,18,09,41,14.50
2007,09,18,09,42,14.60
2007,09,18,09,43,14.60
2007,09,18,09,44,14.60
2007,09,18,09,45,14.60
2007,09,18,09,46,14.60
2007,09,18,09,47,14.60
2007,09,18,09,48,14.70
2007,09,18,09,49,14.70
2007,09,18,09,50,14.80
2007,09,18,09,51,15.00
2007,09,18,09,52,15.00
2007,09,18,09,53,15.10
2007,09,18,09,54,15.00
2007,09,18,09,55,15.00
2007,09,18,09,56,14.90
2007,09,18,09,57,14.80
2007,09,18,09,58,14.80
2007,09,18,09,59,14.80
2007,09,18,10,00,14.80
2007,09,18,10,01,14.80
2007,09,18,10,02,14.60
2007,09,18,10,03,14.50
2007,09,18,10,04,14.50
2007,09,18,10,05,14.30
2007,09,18,10,06,14.20
2007,09,18,10,07,14.20
2007,09,18,10,08,14.20
2007,09,18,10,09,14.20
2007,09,18,10,10,14.20
2007,09,18,10,11,14.20
2007,09,18,10,12,14.20
2007,09,18,10,13,14.20
2007,09,18,10,14,14.30
2007,09,18,10,15,14.30
2007,09,18,10,16,14.40
2007,09,18,10,17,14.40
2007,09,18,10,18,14.40
2007,09,18,10,19,14.50
2007,09,18,10,20,14.60
2007,09,18,10,21,14.70
2007,09,18,10,22,14.80
2007,09,18,10,23,14.90
2007,09,18,10,24,15.00
2007,09,18,10,25,15.00
2007,09,18,10,26,14.90
2007,09,18,10,27,14.90
2007,09,18,10,28,15.00
2007,09,18,10,29,15.10
2007,09,18,10,30,15.10
2007,09,18,10,31,15.10
2007,09,18,10,32,15.20
2007,09,18,10,33,15.20
2007,09,18,10,34,15.10
2007,09,18,10,35,15.00
2007,09,18,10,36,14.90
2007,09,18,10,37,14.90
2007,09,18,10,38,14.90
2007,09,18,10,39,14.90
2007,09,18,10,40,15.00
2007,09,18,10,41,15.10
2007,09,18,10,42,15.10
2007,09,18,10,43,15.10
2007,09,18,10,44,15.10
2007,09,18,10,45,15.10
2007,09,18,10,46,15.10
2007,09,18,10,47,15.10
2007,09,18,10,48,15.10
2007,09,18,10,49,15.10
2007,09,18,10,50,15.00
2007,09,18,10,51,14.90
2007,09,18,10,52,14.80
2007,09,18,10,53,14.80
2007,09,18,10,54,14.80
2007,09,18,10,55,14.90
2007,09,18,10,56,14.90
2007,09,18,10,57,14.80
2007,09,18,10,58,14.80
2007,09,18,10,59,14.80
2007,09,18,11,00,14.70
2007,09,18,11,01,14.60
2007,09,18,11,02,14.60
2007,09,18,11,03,14.60
2007,09,18,11,04,14.60
2007,09,18,11,05,14.70
2007,09,18,11,06,14.80
2007,09,18,11,07,14.80
2007,09,18,11,08,14.90
2007,09,18,11,09,15.00
2007,09,18,11,10,15.00
2007,09,18,11,11,15.00
2007,09,18,11,12,15.00
2007,09,18,11,13,14.90
2007,09,18,11,14,14.80
2007,09,18,11,15,14.80
2007,09,18,11,16,14.90
2007,09,18,11,17,15.00
2007,09,18,11,18,15.00
2007,09,18,11,19,15.00
2007,09,18,11,20,15.10
2007,09,18,11,21,15.20
2007,09,18,11,22,15.30
2007,09,18,11,23,15.30
2007,09,18,11,24,15.30
2007,09,18,11,25,15.30
2007,09,18,11,26,15.30
2007,09,18,11,27,15.30
2007,09,18,11,28,15.30
2007,09,18,11,29,15.20
2007,09,18,11,30,15.10
2007,09,18,11,31,15.10
2007,09,18,11,32,15.30
2007,09,18,11,33,15.30
2007,09,18,11,34,15.30
2007,09,18,11,35,15.20
2007,09,18,11,36,15.20
2007,09,18,11,37,15.10
2007,09,18,11,38,15.10
2007,09,18,11,39,15.10
2007,09,18,11,40,15.20
2007,09,18,11,41,15.20
2007,09,18,11,42,15.10
2007,09,18,11,43,15.10
2007,09,18,11,44,15.00
2007,09,18,11,45,15.00
2007,09,18,11,46,14.90
2007,09,18,11,47,14.90
2007,09,18,11,48,15.00
2007,09,18,11,49,14.90
2007,09,18,11,50,14.90
2007,09,18,11,51,14.90
2007,09,18,11,52,14.90
2007,09,18,11,53,14.70
2007,09,18,11,54,14.50
2007,09,18,11,55,14.40
2007,09,18,11,56,14.30
2007,09,18,11,57,14.30
2007,09,18,11,58,14.30
2007,09,18,11,59,14.30
2007,09,18,12,00,14.30
2007,09,18,12,01,14.40
2007,09,18,12,02,14.40
2007,09,18,12,03,14.50
2007,09,18,12,04,14.50
2007,09,18,12,05,14.60
2007,09,18,12,06,14.70
2007,09,18,12,07,14.80
2007,09,18,12,08,14.80
2007,09,18,12,09,14.90
2007,09,18,12,10,14.90
2007,09,18,12,11,15.00
2007,09,18,12,12,14.90
2007,09,18,12,13,14.90
2007,09,18,12,14,14.80
2007,09,18,12,15,14.80
2007,09,18,12,16,14.80
2007,09,18,12,17,14.80
2007,09,18,12,18,14.70
2007,09,18,12,19,14.60
2007,09,18,12,20,14.40
2007,09,18,12,21,14.30
2007,09,18,12,22,14.30
2007,09,18,12,23,14.20
2007,09,18,12,24,14.20
2007,09,18,12,25,14.20
2007,09,18,12,26,14.20
2007,09,18,12,27,14.30
2007,09,18,12,28,14.40
2007,09,18,12,29,14.40
2007,09,18,12,30,14.50
2007,09,18,12,31,14.60
2007,09,18,12,32,14.70
2007,09,18,12,33,14.80
2007,09,18,12,34,14.90
2007,09,18,12,35,15.00
2007,09,18,12,36,15.10
2007,09,18,12,37,15.20
2007,09,18,12,38,15.20
2007,09,18,12,39,15.30
2007,09,18,12,40,15.30
2007,09,18,12,41,15.30
2007,09,18,12,42,15.20
2007,09,18,12,43,15.20
2007,09,18,12,44,15.10
2007,09,18,12,45,14.90
2007,09,18,12,46,14.80
2007,09,18,12,47,14.80
2007,09,18,12,48,14.90
2007,09,18,12,49,15.10
2007,09,18,12,50,15.20
2007,09,18,12,51,15.20
2007,09,18,12,52,15.10
2007,09,18,12,53,15.10
2007,09,18,12,54,15.00
2007,09,18,12,55,14.90
2007,09,18,12,56,14.90
2007,09,18,12,57,14.90
2007,09,18,12,58,14.80
2007,09,18,12,59,14.80
2007,09,18,13,00,14.60
2007,09,18,13,01,14.50
2007,09,18,13,02,14.40
2007,09,18,13,03,14.30
2007,09,18,13,04,14.30
2007,09,18,13,05,14.30
2007,09,18,13,06,14.30
2007,09,18,13,07,14.30
2007,09,18,13,08,14.30
2007,09,18,13,09,14.30
2007,09,18,13,10,14.40
2007,09,18,13,11,14.40
2007,09,18,13,12,14.50
2007,09,18,13,13,14.50
2007,09,18,13,14,14.50
2007,09,18,13,15,14.50
2007,09,18,13,16,14.60
2007,09,18,13,17,14.50
2007,09,18,13,18,14.60
2007,09,18,13,19,14.50
2007,09,18,13,20,14.60
2007,09,18,13,21,14.60
2007,09,18,13,22,14.60
2007,09,18,13,23,14.70
2007,09,18,13,24,14.70
2007,09,18,13,25,14.80
2007,09,18,13,26,14.80
2007,09,18,13,27,14.90
2007,09,18,13,28,14.90
2007,09,18,13,29,14.80
2007,09,18,13,30,14.80
2007,09,18,13,31,14.80
2007,09,18,13,32,14.80
2007,09,18,13,33,14.80
2007,09,18,13,34,14.80
2007,09,18,13,35,14.90
2007,09,18,13,36,14.90
2007,09,18,13,37,14.90
2007,09,18,13,38,14.90
2007,09,18,13,39,14.90
2007,09,18,13,40,14.90
2007,09,18,13,41,15.00
2007,09,18,13,42,14.90
2007,09,18,13,43,14.80
2007,09,18,13,44,14.80
2007,09,18,13,45,14.80
2007,09,18,13,46,14.90
2007,09,18,13,47,14.90
2007,09,18,13,48,14.90
2007,09,18,13,49,14.80
2007,09,18,13,50,14.80
2007,09,18,13,51,14.90
2007,09,18,13,52,14.90
2007,09,18,13,53,15.00
2007,09,18,13,54,15.00
2007,09,18,13,55,14.90
2007,09,18,13,56,14.80
2007,09,18,13,57,14.80
2007,09,18,13,58,14.80
2007,09,18,13,59,14.70
2007,09,18,14,00,14.70
2007,09,18,14,01,14.70
2007,09,18,14,02,14.70
2007,09,18,14,03,14.80
2007,09,18,14,04,14.90
2007,09,18,14,05,15.00
2007,09,18,14,06,15.10
2007,09,18,14,07,15.00
2007,09,18,14,08,15.10
2007,09,18,14,09,15.10
2007,09,18,14,10,15.20
2007,09,18,14,11,15.20
2007,09,18,14,12,15.10
2007,09,18,14,13,15.00
2007,09,18,14,14,15.00
2007,09,18,14,15,15.00
2007,09,18,14,16,14.90
2007,09,18,14,17,15.00
2007,09,18,14,18,15.00
2007,09,18,14,19,15.10
2007,09,18,14,20,15.10
2007,09,18,14,21,15.20
2007,09,18,14,22,15.30
2007,09,18,14,23,15.30
2007,09,18,14,24,15.30
2007,09,18,14,25,15.20
2007,09,18,14,26,15.10
2007,09,18,14,27,15.10
2007,09,18,14,28,15.10
2007,09,18,14,29,15.00
2007,09,18,14,30,15.00
2007,09,18,14,31,15.00
2007,09,18,14,32,14.90
2007,09,18,14,33,14.90
2007,09,18,14,34,14.90
2007,09,18,14,35,14.90
2007,09,18,14,36,14.90
2007,09,18,14,37,14.90
2007,09,18,14,38,14.90
2007,09,18,14,39,14.80
2007,09,18,14,40,14.80
2007,09,18,14,41,15.00
2007,09,18,14,42,15.10
2007,09,18,14,43,15.10
2007,09,18,14,44,15.20
2007,09,18,14,45,15.30
2007,09,18,14,46,15.30
2007,09,18,14,47,15.30
2007,09,18,14,48,15.30
2007,09,18,14,49,15.20
2007,09,18,14,50,15.20
2007,09,18,14,51,15.30
2007,09,18,14,52,15.30
2007,09,18,14,53,15.30
2007,09,18,14,54,15.30
2007,09,18,14,55,15.40
2007,09,18,14,56,15.50
2007,09,18,14,57,15.60
2007,09,18,14,58,15.60
2007,09,18,14,59,15.60
2007,09,18,15,00,15.60
2007,09,18,15,01,15.60
2007,09,18,15,02,15.80
2007,09,18,15,03,15.80
2007,09,18,15,04,15.70
2007,09,18,15,05,15.60
2007,09,18,15,06,15.60
2007,09,18,15,07,15.60
2007,09,18,15,08,15.60
2007,09,18,15,09,15.70
2007,09,18,15,10,15.70
2007,09,18,15,11,15.70
2007,09,18,15,12,15.60
2007,09,18,15,13,15.60
2007,09,18,15,14,15.70
2007,09,18,15,15,15.60
2007,09,18,15,16,15.50
2007,09,18,15,17,15.50
2007,09,18,15,18,15.50
2007,09,18,15,19,15.50
2007,09,18,15,20,15.50
2007,09,18,15,21,15.50
2007,09,18,15,22,15.50
2007,09,18,15,23,15.40
2007,09,18,15,24,15.30
2007,09,18,15,25,15.30
2007,09,18,15,26,15.30
2007,09,18,15,27,15.30
2007,09,18,15,28,15.30
2007,09,18,15,29,15.30
2007,09,18,15,30,15.30
2007,09,18,15,31,15.40
2007,09,18,15,32,15.40
2007,09,18,15,33,15.50
2007,09,18,15,34,15.50
2007,09,18,15,35,15.60
2007,09,18,15,36,15.60
2007,09,18,15,37,15.50
2007,09,18,15,38,15.50
2007,09,18,15,39,15.40
2007,09,18,15,40,15.40
2007,09,18,15,41,15.40
2007,09,18,15,42,15.50
2007,09,18,15,43,15.50
2007,09,18,15,44,15.50
2007,09,18,15,45,15.50
2007,09,18,15,46,15.50
2007,09,18,15,47,15.50
2007,09,18,15,48,15.50
2007,09,18,15,49,15.50
2007,09,18,15,50,15.50
2007,09,18,15,51,15.60
2007,09,18,15,52,15.60
2007,09,18,15,53,15.60
2007,09,18,15,54,15.60
2007,09,18,15,55,15.60
2007,09,18,15,56,15.60
2007,09,18,15,57,15.60
2007,09,18,15,58,15.60
2007,09,18,15,59,15.60
2007,09,18,16,00,15.60
2007,09,18,16,01,15.70
2007,09,18,16,02,15.70
2007,09,18,16,03,15.70
2007,09,18,16,04,15.70
2007,09,18,16,05,15.80
2007,09,18,16,06,15.70
2007,09,18,16,07,15.60
2007,09,18,16,08,15.60
2007,09,18,16,09,15.60
2007,09,18,16,10,15.70
2007,09,18,16,11,15.70
2007,09,18,16,12,15.80
2007,09,18,16,13,15.80
2007,09,18,16,14,15.80
2007,09,18,16,15,15.80
2007,09,18,16,16,15.80
2007,09,18,16,17,15.80
2007,09,18,16,18,15.70
2007,09,18,16,19,15.70
2007,09,18,16,20,15.80
2007,09,18,16,21,15.80
2007,09,18,16,22,15.80
2007,09,18,16,23,15.80
2007,09,18,16,24,15.80
2007,09,18,16,25,15.80
2007,09,18,16,26,15.80
2007,09,18,16,27,15.80
2007,09,18,16,28,15.80
2007,09,18,16,29,15.80
2007,09,18,16,30,15.80
2007,09,18,16,31,15.80
2007,09,18,16,32,15.80
2007,09,18,16,33,15.80
2007,09,18,16,34,15.80
2007,09,18,16,35,15.80
2007,09,18,16,36,15.90
2007,09,18,16,37,15.90
2007,09,18,16,38,15.90
2007,09,18,16,39,15.90
2007,09,18,16,40,15.80
2007,09,18,16,41,15.80
2007,09,18,16,42,15.80
2007,09,18,16,43,15.70
2007,09,18,16,44,15.50
2007,09,18,16,45,15.40
2007,09,18,16,46,15.30
2007,09,18,16,47,15.10
2007,09,18,16,48,15.00
2007,09,18,16,49,14.90
2007,09,18,16,50,14.70
2007,09,18,16,51,14.60
2007,09,18,16,52,14.50
2007,09,18,16,53,14.40
2007,09,18,16,54,14.40
2007,09,18,16,55,14.20
2007,09,18,16,56,14.10
2007,09,18,16,57,14.10
2007,09,18,16,58,14.00
2007,09,18,16,59,14.00
2007,09,18,17,00,14.00
2007,09,18,17,01,13.90
2007,09,18,17,02,13.80
2007,09,18,17,03,13.80
2007,09,18,17,04,13.70
2007,09,18,17,05,13.70
2007,09,18,17,06,13.70
2007,09,18,17,07,13.70
2007,09,18,17,08,13.70
2007,09,18,17,09,13.80
2007,09,18,17,10,13.90
2007,09,18,17,11,13.90
2007,09,18,17,12,13.90
2007,09,18,17,13,13.90
2007,09,18,17,14,13.90
2007,09,18,17,15,13.70
2007,09,18,17,16,13.70
2007,09,18,17,17,13.60
2007,09,18,17,18,13.50
2007,09,18,17,19,13.40
2007,09,18,17,20,13.30
2007,09,18,17,21,13.30
2007,09,18,17,22,13.30
2007,09,18,17,23,13.20
2007,09,18,17,24,13.30
2007,09,18,17,25,13.20
2007,09,18,17,26,13.20
2007,09,18,17,27,13.30
2007,09,18,17,28,13.20
2007,09,18,17,29,13.10
2007,09,18,17,30,13.10
2007,09,18,17,31,13.00
2007,09,18,17,32,13.00
2007,09,18,17,33,13.00
2007,09,18,17,34,13.00
2007,09,18,17,35,13.00
2007,09,18,17,36,13.00